Time,TemperatureF,DewpointF,PressureIn,WindDirection,WindDirectionDegrees,WindSpeedMPH,WindSpeedGustMPH,Humidity,HourlyPrecipIn,Conditions,Clouds,dailyrainin,SoftwareType,DateUTC
2013-03-02 00:04:00,66.3,21.6,30.21,NNW,332,4.0,5.0,18,0.00,,---,0.00,VWS V14.00,2013-03-02 08:04:00,
2013-03-02 00:09:00,66.9,22.0,30.20,NNW,332,6.0,8.0,18,0.00,,---,0.00,VWS V14.00,2013-03-02 08:09:00,
2013-03-02 00:14:00,67.2,22.3,30.20,NNW,332,4.0,10.0,18,0.00,,---,0.00,VWS V14.00,2013-03-02 08:14:00,
2013-03-02 00:19:00,66.8,22.0,30.20,NNW,332,6.0,8.0,18,0.00,,---,0.00,VWS V14.00,2013-03-02 08:19:00,
2013-03-02 00:24:00,65.9,22.5,30.20,NNW,332,3.0,5.0,19,0.00,,---,0.00,VWS V14.00,2013-03-02 08:24:00,
2013-03-02 00:29:00,65.1,21.9,30.20,NNW,332,4.0,6.0,19,0.00,,---,0.00,VWS V14.00,2013-03-02 08:29:00,
2013-03-02 00:34:00,66.0,21.3,30.21,NNW,332,5.0,8.0,18,0.00,,---,0.00,VWS V14.00,2013-03-02 08:34:00,
2013-03-02 00:39:00,66.2,21.5,30.20,NNW,332,4.0,6.0,18,0.00,,---,0.00,VWS V14.00,2013-03-02 08:39:00,
2013-03-02 00:44:00,65.2,21.9,30.21,NNW,332,3.0,6.0,19,0.00,,---,0.00,VWS V14.00,2013-03-02 08:44:00,
2013-03-02 00:49:00,64.5,21.4,30.21,NNW,332,3.0,6.0,19,0.00,,---,0.00,VWS V14.00,2013-03-02 08:49:00,
2013-03-02 00:54:00,64.4,21.3,30.21,NNW,332,4.0,7.0,19,0.00,,---,0.00,VWS V14.00,2013-03-02 08:54:00,
2013-03-02 00:59:00,64.8,21.6,30.21,NNW,332,5.0,6.0,19,0.00,,---,0.00,VWS V14.00,2013-03-02 08:59:00,
2013-03-02 01:05:00,66.3,21.6,30.21,NNW,332,1.0,12.0,18,0.00,,---,0.00,VWS V14.00,2013-03-02 09:05:00,
2013-03-02 01:10:00,67.3,22.4,30.21,NNW,332,4.0,8.0,18,0.00,,---,0.00,VWS V14.00,2013-03-02 09:10:00,
2013-03-02 01:15:00,66.6,21.8,30.21,NNW,332,4.0,7.0,18,0.00,,---,0.00,VWS V14.00,2013-03-02 09:15:00,
2013-03-02 01:20:00,66.7,21.9,30.21,NNW,332,3.0,7.0,18,0.00,,---,0.00,VWS V14.00,2013-03-02 09:20:00,
2013-03-02 01:25:00,66.1,21.4,30.21,NNW,332,4.0,6.0,18,0.00,,---,0.00,VWS V14.00,2013-03-02 09:25:00,
2013-03-02 01:30:00,66.0,21.3,30.21,NNW,332,4.0,5.0,18,0.00,,---,0.00,VWS V14.00,2013-03-02 09:30:00,
2013-03-02 01:35:00,66.9,20.7,30.20,NNW,332,2.0,4.0,17,0.00,,---,0.00,VWS V14.00,2013-03-02 09:35:00,
2013-03-02 01:40:00,66.6,21.8,30.20,NNW,332,4.0,6.0,18,0.00,,---,0.00,VWS V14.00,2013-03-02 09:40:00,
2013-03-02 01:45:00,66.1,21.4,30.20,NNW,332,4.0,6.0,18,0.00,,---,0.00,VWS V14.00,2013-03-02 09:45:00,
2013-03-02 01:50:00,65.8,22.4,30.20,NNW,332,2.0,5.0,19,0.00,,---,0.00,VWS V14.00,2013-03-02 09:50:00,
2013-03-02 01:55:00,65.8,22.4,30.20,NNW,332,4.0,6.0,19,0.00,,---,0.00,VWS V14.00,2013-03-02 09:55:00,
2013-03-02 02:00:00,65.6,22.3,30.20,NNW,332,5.0,6.0,19,0.00,,---,0.00,VWS V14.00,2013-03-02 10:00:00,
2013-03-02 02:05:00,65.1,21.9,30.19,NNW,332,6.0,8.0,19,0.00,,---,0.00,VWS V14.00,2013-03-02 10:05:00,
2013-03-02 02:10:00,65.6,22.3,30.19,NNW,332,3.0,6.0,19,0.00,,---,0.00,VWS V14.00,2013-03-02 10:10:00,
2013-03-02 02:15:00,65.6,22.3,30.19,NNW,332,3.0,4.0,19,0.00,,---,0.00,VWS V14.00,2013-03-02 10:15:00,
2013-03-02 02:20:00,66.4,21.6,30.19,NNW,332,2.0,3.0,18,0.00,,---,0.00,VWS V14.00,2013-03-02 10:20:00,
2013-03-02 02:25:00,66.0,22.6,30.19,NNW,332,6.0,7.0,19,0.00,,---,0.00,VWS V14.00,2013-03-02 10:25:00,
2013-03-02 02:30:00,63.8,22.0,30.19,NNW,332,5.0,6.0,20,0.00,,---,0.00,VWS V14.00,2013-03-02 10:30:00,
2013-03-02 02:35:00,64.9,21.7,30.19,NNW,332,3.0,5.0,19,0.00,,---,0.00,VWS V14.00,2013-03-02 10:35:00,
2013-03-02 02:41:00,65.5,22.2,30.19,NNW,332,2.0,6.0,19,0.00,,---,0.00,VWS V14.00,2013-03-02 10:41:00,
2013-03-02 02:46:00,64.9,22.9,30.19,NNW,332,4.0,6.0,20,0.00,,---,0.00,VWS V14.00,2013-03-02 10:46:00,
2013-03-02 02:55:00,64.7,23.9,30.19,NNW,332,5.0,10.0,21,0.00,,---,0.00,VWS V14.00,2013-03-02 10:55:00,
2013-03-02 03:00:00,64.4,23.6,30.19,NNW,332,4.0,6.0,21,0.00,,---,0.00,VWS V14.00,2013-03-02 11:00:00,
2013-03-02 03:05:00,63.6,23.0,30.18,NNW,332,7.0,7.0,21,0.00,,---,0.00,VWS V14.00,2013-03-02 11:05:00,
2013-03-02 03:10:00,63.8,23.1,30.18,NNW,332,5.0,9.0,21,0.00,,---,0.00,VWS V14.00,2013-03-02 11:10:00,
2013-03-02 03:15:00,63.9,23.2,30.18,NNW,332,4.0,7.0,21,0.00,,---,0.00,VWS V14.00,2013-03-02 11:15:00,
2013-03-02 03:20:00,64.0,23.3,30.18,NNW,332,4.0,8.0,21,0.00,,---,0.00,VWS V14.00,2013-03-02 11:20:00,
2013-03-02 03:25:00,63.5,22.9,30.18,NNW,332,3.0,6.0,21,0.00,,---,0.00,VWS V14.00,2013-03-02 11:25:00,
2013-03-02 03:30:00,62.9,23.5,30.18,NNW,332,4.0,5.0,22,0.00,,---,0.00,VWS V14.00,2013-03-02 11:30:00,
2013-03-02 03:35:00,62.3,24.1,30.18,NNW,332,2.0,5.0,23,0.00,,---,0.00,VWS V14.00,2013-03-02 11:35:00,
2013-03-02 03:40:00,62.0,23.8,30.18,NNW,332,1.0,6.0,23,0.00,,---,0.00,VWS V14.00,2013-03-02 11:40:00,
2013-03-02 03:45:00,61.6,23.5,30.18,NNW,332,3.0,5.0,23,0.00,,---,0.00,VWS V14.00,2013-03-02 11:45:00,
2013-03-02 03:50:00,61.1,23.0,30.18,NNW,332,2.0,6.0,23,0.00,,---,0.00,VWS V14.00,2013-03-02 11:50:00,
2013-03-02 03:55:00,60.7,22.7,30.18,NNW,332,5.0,8.0,23,0.00,,---,0.00,VWS V14.00,2013-03-02 11:55:00,
2013-03-02 04:00:00,60.7,23.7,30.18,NNW,332,6.0,7.0,24,0.00,,---,0.00,VWS V14.00,2013-03-02 12:00:00,
2013-03-02 04:05:00,61.1,23.0,30.18,NNW,332,6.0,7.0,23,0.00,,---,0.00,VWS V14.00,2013-03-02 12:05:00,
2013-03-02 04:10:00,61.6,23.5,30.18,NNW,332,7.0,7.0,23,0.00,,---,0.00,VWS V14.00,2013-03-02 12:10:00,
2013-03-02 04:15:00,62.1,23.9,30.18,NNW,332,8.0,8.0,23,0.00,,---,0.00,VWS V14.00,2013-03-02 12:15:00,
2013-03-02 04:20:00,62.1,23.9,30.18,NNW,332,5.0,8.0,23,0.00,,---,0.00,VWS V14.00,2013-03-02 12:20:00,
2013-03-02 04:25:00,62.3,24.1,30.18,NNW,332,5.0,9.0,23,0.00,,---,0.00,VWS V14.00,2013-03-02 12:25:00,
2013-03-02 04:30:00,62.8,23.4,30.18,NNW,332,5.0,8.0,22,0.00,,---,0.00,VWS V14.00,2013-03-02 12:30:00,
2013-03-02 04:35:00,63.4,23.9,30.18,NNW,332,10.0,10.0,22,0.00,,---,0.00,VWS V14.00,2013-03-02 12:35:00,
2013-03-02 04:40:00,63.9,24.3,30.18,NNW,332,8.0,11.0,22,0.00,,---,0.00,VWS V14.00,2013-03-02 12:40:00,
2013-03-02 04:45:00,63.8,24.2,30.18,NNW,332,4.0,11.0,22,0.00,,---,0.00,VWS V14.00,2013-03-02 12:45:00,
2013-03-02 04:50:00,63.2,23.8,30.18,NNW,332,4.0,9.0,22,0.00,,---,0.00,VWS V14.00,2013-03-02 12:50:00,
2013-03-02 04:55:00,63.1,23.7,30.19,NNW,332,6.0,10.0,22,0.00,,---,0.00,VWS V14.00,2013-03-02 12:55:00,
2013-03-02 05:00:00,63.1,23.7,30.19,NNW,332,8.0,9.0,22,0.00,,---,0.00,VWS V14.00,2013-03-02 13:00:00,
2013-03-02 05:05:00,63.3,23.8,30.19,NNW,332,9.0,10.0,22,0.00,,---,0.00,VWS V14.00,2013-03-02 13:05:00,
2013-03-02 05:10:00,63.2,23.8,30.19,NNW,332,10.0,12.0,22,0.00,,---,0.00,VWS V14.00,2013-03-02 13:10:00,
2013-03-02 05:15:00,63.4,23.9,30.19,NNW,332,7.0,11.0,22,0.00,,---,0.00,VWS V14.00,2013-03-02 13:15:00,
2013-03-02 05:20:00,63.4,23.9,30.18,NNW,332,6.0,12.0,22,0.00,,---,0.00,VWS V14.00,2013-03-02 13:20:00,
2013-03-02 05:25:00,63.8,24.2,30.19,NNW,332,7.0,14.0,22,0.00,,---,0.00,VWS V14.00,2013-03-02 13:25:00,
2013-03-02 05:30:00,63.9,24.3,30.19,NNW,332,8.0,12.0,22,0.00,,---,0.00,VWS V14.00,2013-03-02 13:30:00,
2013-03-02 05:35:00,63.9,24.3,30.19,NNW,332,7.0,11.0,22,0.00,,---,0.00,VWS V14.00,2013-03-02 13:35:00,
2013-03-02 05:40:00,63.9,24.3,30.19,NNW,332,7.0,11.0,22,0.00,,---,0.00,VWS V14.00,2013-03-02 13:40:00,
2013-03-02 05:45:00,63.7,24.2,30.19,NNW,332,6.0,9.0,22,0.00,,---,0.00,VWS V14.00,2013-03-02 13:45:00,
2013-03-02 05:50:00,63.4,23.9,30.19,NNW,332,10.0,10.0,22,0.00,,---,0.00,VWS V14.00,2013-03-02 13:50:00,
2013-03-02 05:55:00,63.4,23.9,30.19,NNW,332,4.0,9.0,22,0.00,,---,0.00,VWS V14.00,2013-03-02 13:55:00,
2013-03-02 06:00:00,63.5,25.1,30.19,NNW,332,4.0,10.0,23,0.00,,---,0.00,VWS V14.00,2013-03-02 14:00:00,
2013-03-02 06:05:00,63.5,25.1,30.19,NNW,332,5.0,7.0,23,0.00,,---,0.00,VWS V14.00,2013-03-02 14:05:00,
2013-03-02 06:11:00,63.1,24.7,30.19,NNW,332,4.0,8.0,23,0.00,,---,0.00,VWS V14.00,2013-03-02 14:11:00,
2013-03-02 06:16:00,63.0,24.6,30.19,NNW,332,4.0,7.0,23,0.00,,---,0.00,VWS V14.00,2013-03-02 14:16:00,
2013-03-02 06:21:00,62.7,24.4,30.19,NNW,332,6.0,7.0,23,0.00,,---,0.00,VWS V14.00,2013-03-02 14:21:00,
2013-03-02 06:26:00,62.8,24.5,30.19,NNW,332,3.0,7.0,23,0.00,,---,0.00,VWS V14.00,2013-03-02 14:26:00,
2013-03-02 06:31:00,62.7,24.4,30.19,NNW,332,4.0,8.0,23,0.00,,---,0.00,VWS V14.00,2013-03-02 14:31:00,
2013-03-02 06:36:00,63.4,25.0,30.20,NNW,332,4.0,11.0,23,0.00,,---,0.00,VWS V14.00,2013-03-02 14:36:00,
2013-03-02 06:41:00,64.0,25.5,30.20,NNW,332,8.0,10.0,23,0.00,,---,0.00,VWS V14.00,2013-03-02 14:41:00,
2013-03-02 06:46:00,65.0,25.3,30.20,NNW,332,6.0,10.0,22,0.00,,---,0.00,VWS V14.00,2013-03-02 14:46:00,
2013-03-02 06:51:00,65.6,25.8,30.20,NNW,332,9.0,11.0,22,0.00,,---,0.00,VWS V14.00,2013-03-02 14:51:00,
2013-03-02 06:56:00,65.6,25.8,30.20,NNW,332,6.0,11.0,22,0.00,,---,0.00,VWS V14.00,2013-03-02 14:56:00,
2013-03-02 07:01:00,65.9,26.0,30.20,NNW,332,6.0,12.0,22,0.00,,---,0.00,VWS V14.00,2013-03-02 15:01:00,
2013-03-02 07:06:00,66.2,26.3,30.20,NNW,332,2.0,12.0,22,0.00,,---,0.00,VWS V14.00,2013-03-02 15:06:00,
2013-03-02 07:11:00,66.8,25.6,30.21,NNW,332,7.0,9.0,21,0.00,,---,0.00,VWS V14.00,2013-03-02 15:11:00,
2013-03-02 07:16:00,67.9,25.4,30.21,NNW,332,3.0,9.0,20,0.00,,---,0.00,VWS V14.00,2013-03-02 15:16:00,
2013-03-02 07:21:00,68.4,25.8,30.21,NNW,332,0.0,5.0,20,0.00,,---,0.00,VWS V14.00,2013-03-02 15:21:00,
2013-03-02 07:26:00,69.0,26.3,30.21,NNW,332,4.0,4.0,20,0.00,,---,0.00,VWS V14.00,2013-03-02 15:26:00,
2013-03-02 07:31:00,69.5,26.7,30.22,NNW,332,0.0,3.0,20,0.00,,---,0.00,VWS V14.00,2013-03-02 15:31:00,
2013-03-02 07:36:00,70.1,27.2,30.22,NNW,332,0.0,0.0,20,0.00,,---,0.00,VWS V14.00,2013-03-02 15:36:00,
2013-03-02 07:41:00,71.2,26.9,30.22,NNW,332,0.0,0.0,19,0.00,,---,0.00,VWS V14.00,2013-03-02 15:41:00,
2013-03-02 07:46:00,72.0,26.2,30.22,NNW,332,0.0,0.0,18,0.00,,---,0.00,VWS V14.00,2013-03-02 15:46:00,
2013-03-02 07:51:00,72.6,26.7,30.22,NNW,332,0.0,0.0,18,0.00,,---,0.00,VWS V14.00,2013-03-02 15:51:00,
2013-03-02 07:56:00,72.4,26.5,30.22,NNW,332,0.0,0.0,18,0.00,,---,0.00,VWS V14.00,2013-03-02 15:56:00,
2013-03-02 08:01:00,72.5,26.6,30.22,NNW,332,0.0,4.0,18,0.00,,---,0.00,VWS V14.00,2013-03-02 16:01:00,
2013-03-02 08:06:00,72.6,25.3,30.22,NNW,332,0.0,0.0,17,0.00,,---,0.00,VWS V14.00,2013-03-02 16:06:00,
2013-03-02 08:11:00,72.7,25.4,30.22,NNW,332,2.0,5.0,17,0.00,,---,0.00,VWS V14.00,2013-03-02 16:11:00,
2013-03-02 08:16:00,72.6,26.7,30.22,NNW,332,1.0,5.0,18,0.00,,---,0.00,VWS V14.00,2013-03-02 16:16:00,
2013-03-02 08:21:00,72.5,26.6,30.22,NNW,332,6.0,6.0,18,0.00,,---,0.00,VWS V14.00,2013-03-02 16:21:00,
2013-03-02 08:26:00,72.5,26.6,30.22,NNW,332,6.0,9.0,18,0.00,,---,0.00,VWS V14.00,2013-03-02 16:26:00,
2013-03-02 08:31:00,72.6,25.3,30.22,NNW,332,7.0,11.0,17,0.00,,---,0.00,VWS V14.00,2013-03-02 16:31:00,
2013-03-02 08:36:00,72.9,25.6,30.22,NNW,332,7.0,9.0,17,0.00,,---,0.00,VWS V14.00,2013-03-02 16:36:00,
2013-03-02 08:41:00,73.0,25.6,30.22,NNW,332,2.0,10.0,17,0.00,,---,0.00,VWS V14.00,2013-03-02 16:41:00,
2013-03-02 08:46:00,73.4,24.5,30.21,NNW,332,4.0,10.0,16,0.00,,---,0.00,VWS V14.00,2013-03-02 16:46:00,
2013-03-02 08:51:00,73.7,24.8,30.21,NNW,332,4.0,10.0,16,0.00,,---,0.00,VWS V14.00,2013-03-02 16:51:00,
2013-03-02 08:56:00,74.0,25.0,30.21,NNW,332,10.0,10.0,16,0.00,,---,0.00,VWS V14.00,2013-03-02 16:56:00,
2013-03-02 09:01:00,74.2,26.6,30.21,NNW,332,4.0,10.0,17,0.00,,---,0.00,VWS V14.00,2013-03-02 17:01:00,
2013-03-02 09:06:00,74.5,25.4,30.21,NNW,332,0.0,9.0,16,0.00,,---,0.00,VWS V14.00,2013-03-02 17:06:00,
2013-03-02 09:11:00,75.1,25.9,30.21,NNW,332,3.0,7.0,16,0.00,,---,0.00,VWS V14.00,2013-03-02 17:11:00,
2013-03-02 09:16:00,75.4,24.6,30.21,NNW,332,2.0,8.0,15,0.00,,---,0.00,VWS V14.00,2013-03-02 17:16:00,
2013-03-02 09:21:00,75.3,26.0,30.21,NNW,332,5.0,10.0,16,0.00,,---,0.00,VWS V14.00,2013-03-02 17:21:00,
2013-03-02 09:26:00,75.2,26.0,30.21,NNW,332,8.0,12.0,16,0.00,,---,0.00,VWS V14.00,2013-03-02 17:26:00,
2013-03-02 09:31:00,75.4,26.1,30.21,NNW,332,6.0,12.0,16,0.00,,---,0.00,VWS V14.00,2013-03-02 17:31:00,
2013-03-02 09:36:00,75.6,24.7,30.20,NNW,332,9.0,12.0,15,0.00,,---,0.00,VWS V14.00,2013-03-02 17:36:00,
2013-03-02 09:41:00,75.6,23.1,30.20,NNW,332,10.0,12.0,14,0.00,,---,0.00,VWS V14.00,2013-03-02 17:41:00,
2013-03-02 09:46:00,75.6,24.7,30.20,NNW,332,4.0,11.0,15,0.00,,---,0.00,VWS V14.00,2013-03-02 17:46:00,
2013-03-02 09:51:00,75.8,23.2,30.20,NNW,332,8.0,10.0,14,0.00,,---,0.00,VWS V14.00,2013-03-02 17:51:00,
2013-03-02 09:56:00,75.9,25.0,30.20,NNW,332,6.0,10.0,15,0.00,,---,0.00,VWS V14.00,2013-03-02 17:56:00,
2013-03-02 10:01:00,76.2,23.6,30.20,NNW,332,5.0,12.0,14,0.00,,---,0.00,VWS V14.00,2013-03-02 18:01:00,
2013-03-02 10:06:00,76.4,23.7,30.20,NNW,332,5.0,10.0,14,0.00,,---,0.00,VWS V14.00,2013-03-02 18:06:00,
2013-03-02 10:11:00,76.4,23.7,30.20,NNW,332,8.0,10.0,14,0.00,,---,0.00,VWS V14.00,2013-03-02 18:11:00,
2013-03-02 10:16:00,76.5,23.8,30.20,NNW,332,5.0,12.0,14,0.00,,---,0.00,VWS V14.00,2013-03-02 18:16:00,
2013-03-02 10:21:00,77.0,25.9,30.20,NNW,332,6.0,11.0,15,0.00,,---,0.00,VWS V14.00,2013-03-02 18:21:00,
2013-03-02 10:26:00,77.2,24.4,30.20,NNW,332,0.0,10.0,14,0.00,,---,0.00,VWS V14.00,2013-03-02 18:26:00,
2013-03-02 10:31:00,77.6,24.7,30.19,East,92,13.0,21.0,14,0.00,,---,0.00,VWS V14.00,2013-03-02 18:31:00,
2013-03-02 10:36:00,77.5,24.6,30.19,East,92,5.0,14.0,14,0.00,,---,0.00,VWS V14.00,2013-03-02 18:36:00,
2013-03-02 10:41:00,77.6,24.7,30.19,East,92,13.0,13.0,14,0.00,,---,0.00,VWS V14.00,2013-03-02 18:41:00,
2013-03-02 10:46:00,78.0,25.0,30.19,East,92,3.0,14.0,14,0.00,,---,0.00,VWS V14.00,2013-03-02 18:46:00,
2013-03-02 10:51:00,77.9,24.9,30.19,ESE,104,9.0,20.0,14,0.00,,---,0.00,VWS V14.00,2013-03-02 18:51:00,
2013-03-02 10:56:00,77.8,24.8,30.18,SE,127,8.0,21.0,14,0.00,,---,0.00,VWS V14.00,2013-03-02 18:56:00,
2013-03-02 11:01:00,77.9,26.6,30.18,SE,128,6.0,16.0,15,0.00,,---,0.00,VWS V14.00,2013-03-02 19:01:00,
2013-03-02 11:06:00,78.3,25.2,30.18,SE,128,12.0,15.0,14,0.00,,---,0.00,VWS V14.00,2013-03-02 19:06:00,
2013-03-02 11:11:00,78.1,25.1,30.18,SE,146,11.0,20.0,14,0.00,,---,0.00,VWS V14.00,2013-03-02 19:11:00,
2013-03-02 11:16:00,78.3,25.2,30.18,SE,146,7.0,18.0,14,0.00,,---,0.00,VWS V14.00,2013-03-02 19:16:00,
2013-03-02 11:21:00,78.5,25.4,30.18,SE,146,12.0,17.0,14,0.00,,---,0.00,VWS V14.00,2013-03-02 19:21:00,
2013-03-02 11:26:00,78.6,25.5,30.17,SE,146,10.0,13.0,14,0.00,,---,0.00,VWS V14.00,2013-03-02 19:26:00,
2013-03-02 11:31:00,78.9,25.7,30.17,SSE,147,7.0,8.0,14,0.00,,---,0.00,VWS V14.00,2013-03-02 19:31:00,
2013-03-02 11:36:00,79.1,25.9,30.17,SSE,151,6.0,8.0,14,0.00,,---,0.00,VWS V14.00,2013-03-02 19:36:00,
2013-03-02 11:41:00,79.5,27.9,30.16,SSE,153,5.0,5.0,15,0.00,,---,0.00,VWS V14.00,2013-03-02 19:41:00,
2013-03-02 11:46:00,79.6,26.3,30.16,SSE,155,15.0,15.0,14,0.00,,---,0.00,VWS V14.00,2013-03-02 19:46:00,
2013-03-02 11:51:00,79.9,26.5,30.16,SSE,157,8.0,16.0,14,0.00,,---,0.00,VWS V14.00,2013-03-02 19:51:00,
2013-03-02 11:56:00,80.1,26.6,30.15,SSE,157,14.0,14.0,14,0.00,,---,0.00,VWS V14.00,2013-03-02 19:56:00,
2013-03-02 12:01:00,80.0,26.6,30.15,SSE,161,3.0,8.0,14,0.00,,---,0.00,VWS V14.00,2013-03-02 20:01:00,
2013-03-02 12:06:00,80.5,27.0,30.15,SSE,161,8.0,9.0,14,0.00,,---,0.00,VWS V14.00,2013-03-02 20:06:00,
2013-03-02 12:11:00,80.7,25.3,30.14,SSE,161,9.0,10.0,13,0.00,,---,0.00,VWS V14.00,2013-03-02 20:11:00,
2013-03-02 12:16:00,80.3,25.0,30.14,South,173,4.0,4.0,13,0.00,,---,0.00,VWS V14.00,2013-03-02 20:16:00,
2013-03-02 12:21:00,80.4,26.9,30.14,South,173,2.0,4.0,14,0.00,,---,0.00,VWS V14.00,2013-03-02 20:21:00,
2013-03-02 12:26:00,80.8,27.2,30.13,SSE,167,1.0,6.0,14,0.00,,---,0.00,VWS V14.00,2013-03-02 20:26:00,
2013-03-02 12:31:00,80.8,25.4,30.13,SSE,163,4.0,7.0,13,0.00,,---,0.00,VWS V14.00,2013-03-02 20:31:00,
2013-03-02 12:36:00,80.4,25.1,30.12,SSE,159,6.0,7.0,13,0.00,,---,0.00,VWS V14.00,2013-03-02 20:36:00,
2013-03-02 12:41:00,80.7,27.1,30.12,SSE,167,5.0,10.0,14,0.00,,---,0.00,VWS V14.00,2013-03-02 20:41:00,
2013-03-02 12:46:00,80.5,25.2,30.12,SSE,158,11.0,13.0,13,0.00,,---,0.00,VWS V14.00,2013-03-02 20:46:00,
2013-03-02 12:51:00,80.9,27.3,30.11,SSE,162,5.0,9.0,14,0.00,,---,0.00,VWS V14.00,2013-03-02 20:51:00,
2013-03-02 12:56:00,81.1,27.4,30.11,SSE,166,6.0,10.0,14,0.00,,---,0.00,VWS V14.00,2013-03-02 20:56:00,
2013-03-02 13:01:00,80.7,27.1,30.11,SSE,160,3.0,10.0,14,0.00,,---,0.00,VWS V14.00,2013-03-02 21:01:00,
2013-03-02 13:06:00,81.0,27.4,30.10,SSE,163,10.0,10.0,14,0.00,,---,0.00,VWS V14.00,2013-03-02 21:06:00,
2013-03-02 13:11:00,81.0,27.4,30.10,SSE,163,3.0,13.0,14,0.00,,---,0.00,VWS V14.00,2013-03-02 21:11:00,
2013-03-02 13:16:00,81.1,27.4,30.10,SSE,150,18.0,18.0,14,0.00,,---,0.00,VWS V14.00,2013-03-02 21:16:00,
2013-03-02 13:21:00,80.8,27.2,30.09,SSE,150,6.0,8.0,14,0.00,,---,0.00,VWS V14.00,2013-03-02 21:21:00,
2013-03-02 13:26:00,80.9,27.3,30.09,SSE,161,11.0,15.0,14,0.00,,---,0.00,VWS V14.00,2013-03-02 21:26:00,
2013-03-02 13:31:00,80.8,27.2,30.09,SSE,161,8.0,8.0,14,0.00,,---,0.00,VWS V14.00,2013-03-02 21:31:00,
2013-03-02 13:36:00,81.1,25.6,30.09,SSE,158,16.0,26.0,13,0.00,,---,0.00,VWS V14.00,2013-03-02 21:36:00,
2013-03-02 13:41:00,80.9,25.5,30.09,SSE,160,5.0,14.0,13,0.00,,---,0.00,VWS V14.00,2013-03-02 21:41:00,
2013-03-02 13:46:00,81.5,26.0,30.09,SSE,167,16.0,19.0,13,0.00,,---,0.00,VWS V14.00,2013-03-02 21:46:00,
2013-03-02 13:51:00,81.4,25.9,30.08,SSE,159,14.0,16.0,13,0.00,,---,0.00,VWS V14.00,2013-03-02 21:51:00,
2013-03-02 13:56:00,81.3,25.8,30.08,SE,140,16.0,17.0,13,0.00,,---,0.00,VWS V14.00,2013-03-02 21:56:00,
2013-03-02 14:01:00,81.2,29.2,30.08,SE,135,14.0,14.0,15,0.00,,---,0.00,VWS V14.00,2013-03-02 22:01:00,
2013-03-02 14:06:00,81.5,26.0,30.08,SE,136,11.0,12.0,13,0.00,,---,0.00,VWS V14.00,2013-03-02 22:06:00,
2013-03-02 14:12:00,81.1,27.4,30.08,SSE,155,8.0,14.0,14,0.00,,---,0.00,VWS V14.00,2013-03-02 22:12:00,
2013-03-02 14:17:00,81.4,27.7,30.08,SSE,156,10.0,10.0,14,0.00,,---,0.00,VWS V14.00,2013-03-02 22:17:00,
2013-03-02 14:22:00,81.5,26.0,30.07,SSE,157,6.0,6.0,13,0.00,,---,0.00,VWS V14.00,2013-03-02 22:22:00,
2013-03-02 14:27:00,81.1,25.6,30.07,SE,140,6.0,7.0,13,0.00,,---,0.00,VWS V14.00,2013-03-02 22:27:00,
2013-03-02 14:32:00,81.2,27.5,30.07,SE,142,10.0,10.0,14,0.00,,---,0.00,VWS V14.00,2013-03-02 22:32:00,
2013-03-02 14:37:00,81.6,27.8,30.07,SE,146,10.0,10.0,14,0.00,,---,0.00,VWS V14.00,2013-03-02 22:37:00,
2013-03-02 14:42:00,81.6,27.8,30.07,SSE,153,5.0,5.0,14,0.00,,---,0.00,VWS V14.00,2013-03-02 22:42:00,
2013-03-02 14:47:00,82.1,26.4,30.07,SSE,153,12.0,14.0,13,0.00,,---,0.00,VWS V14.00,2013-03-02 22:47:00,
2013-03-02 14:52:00,81.8,28.0,30.07,SSE,157,1.0,10.0,14,0.00,,---,0.00,VWS V14.00,2013-03-02 22:52:00,
2013-03-02 14:57:00,81.6,27.8,30.06,SSE,160,13.0,18.0,14,0.00,,---,0.00,VWS V14.00,2013-03-02 22:57:00,
2013-03-02 15:02:00,81.1,25.6,30.06,SE,138,7.0,10.0,13,0.00,,---,0.00,VWS V14.00,2013-03-02 23:02:00,
2013-03-02 15:07:00,81.1,27.4,30.06,SE,144,5.0,12.0,14,0.00,,---,0.00,VWS V14.00,2013-03-02 23:07:00,
2013-03-02 15:12:00,81.1,27.4,30.06,SSE,150,14.0,21.0,14,0.00,,---,0.00,VWS V14.00,2013-03-02 23:12:00,
2013-03-02 15:17:00,80.7,27.1,30.05,SSE,150,10.0,20.0,14,0.00,,---,0.00,VWS V14.00,2013-03-02 23:17:00,
2013-03-02 15:22:00,80.5,28.6,30.05,SSE,154,8.0,18.0,15,0.00,,---,0.00,VWS V14.00,2013-03-02 23:22:00,
2013-03-02 15:27:00,80.4,26.9,30.05,SSE,151,10.0,12.0,14,0.00,,---,0.00,VWS V14.00,2013-03-02 23:27:00,
2013-03-02 15:32:00,80.0,26.6,30.05,SSE,159,4.0,15.0,14,0.00,,---,0.00,VWS V14.00,2013-03-02 23:32:00,
2013-03-02 15:37:00,79.7,26.3,30.05,SSE,159,9.0,14.0,14,0.00,,---,0.00,VWS V14.00,2013-03-02 23:37:00,
2013-03-02 15:42:00,79.6,27.9,30.05,SSE,159,14.0,17.0,15,0.00,,---,0.00,VWS V14.00,2013-03-02 23:42:00,
2013-03-02 15:47:00,79.8,26.4,30.05,SSE,159,8.0,16.0,14,0.00,,---,0.00,VWS V14.00,2013-03-02 23:47:00,
2013-03-02 15:52:00,80.1,26.6,30.05,SSE,161,7.0,15.0,14,0.00,,---,0.00,VWS V14.00,2013-03-02 23:52:00,
2013-03-02 15:57:00,80.2,26.7,30.04,SSE,161,5.0,16.0,14,0.00,,---,0.00,VWS V14.00,2013-03-02 23:57:00,
2013-03-02 16:02:00,79.9,26.5,30.04,SSE,161,9.0,12.0,14,0.00,,---,0.00,VWS V14.00,2013-03-03 00:02:00,
2013-03-02 16:07:00,79.7,26.3,30.04,SSE,158,17.0,18.0,14,0.00,,---,0.00,VWS V14.00,2013-03-03 00:07:00,
2013-03-02 16:12:00,79.4,26.1,30.04,SSE,160,8.0,12.0,14,0.00,,---,0.00,VWS V14.00,2013-03-03 00:12:00,
2013-03-02 16:17:00,79.3,26.0,30.03,SSE,157,10.0,19.0,14,0.00,,---,0.00,VWS V14.00,2013-03-03 00:17:00,
2013-03-02 16:22:00,79.0,27.5,30.03,SSE,157,16.0,16.0,15,0.00,,---,0.00,VWS V14.00,2013-03-03 00:22:00,
2013-03-02 16:27:00,78.5,27.0,30.03,SSE,157,13.0,15.0,15,0.00,,---,0.00,VWS V14.00,2013-03-03 00:27:00,
2013-03-02 16:32:00,78.2,26.8,30.03,SSE,157,6.0,15.0,15,0.00,,---,0.00,VWS V14.00,2013-03-03 00:32:00,
2013-03-02 16:37:00,78.0,26.6,30.03,SSE,158,6.0,11.0,15,0.00,,---,0.00,VWS V14.00,2013-03-03 00:37:00,
2013-03-02 16:42:00,77.8,26.5,30.03,SSE,158,10.0,15.0,15,0.00,,---,0.00,VWS V14.00,2013-03-03 00:42:00,
2013-03-02 16:47:00,77.6,26.3,30.03,SSE,158,8.0,12.0,15,0.00,,---,0.00,VWS V14.00,2013-03-03 00:47:00,
2013-03-02 16:52:00,77.5,26.2,30.03,SSE,158,4.0,9.0,15,0.00,,---,0.00,VWS V14.00,2013-03-03 00:52:00,
2013-03-02 16:57:00,77.5,26.2,30.03,SSE,158,4.0,10.0,15,0.00,,---,0.00,VWS V14.00,2013-03-03 00:57:00,
2013-03-02 17:02:00,77.5,26.2,30.02,SSE,158,12.0,12.0,15,0.00,,---,0.00,VWS V14.00,2013-03-03 01:02:00,
2013-03-02 17:07:00,77.4,26.2,30.02,SSE,157,10.0,13.0,15,0.00,,---,0.00,VWS V14.00,2013-03-03 01:07:00,
2013-03-02 17:12:00,77.2,26.0,30.03,SSE,157,9.0,10.0,15,0.00,,---,0.00,VWS V14.00,2013-03-03 01:12:00,
2013-03-02 17:17:00,77.1,25.9,30.02,SSE,157,8.0,11.0,15,0.00,,---,0.00,VWS V14.00,2013-03-03 01:17:00,
2013-03-02 17:22:00,76.9,25.8,30.02,SSE,157,10.0,10.0,15,0.00,,---,0.00,VWS V14.00,2013-03-03 01:22:00,
2013-03-02 17:27:00,76.5,27.0,30.02,SSE,157,6.0,8.0,16,0.00,,---,0.00,VWS V14.00,2013-03-03 01:27:00,
2013-03-02 17:32:00,76.2,26.8,30.02,SSE,157,6.0,10.0,16,0.00,,---,0.00,VWS V14.00,2013-03-03 01:32:00,
2013-03-02 17:37:00,76.0,28.1,30.03,SSE,157,4.0,6.0,17,0.00,,---,0.00,VWS V14.00,2013-03-03 01:37:00,
2013-03-02 17:42:00,75.7,27.8,30.03,SSE,157,5.0,6.0,17,0.00,,---,0.00,VWS V14.00,2013-03-03 01:42:00,
2013-03-02 17:47:00,75.3,28.9,30.03,SSE,157,0.0,0.0,18,0.00,,---,0.00,VWS V14.00,2013-03-03 01:47:00,
2013-03-02 17:52:00,75.0,28.7,30.03,SSE,157,0.0,0.0,18,0.00,,---,0.00,VWS V14.00,2013-03-03 01:52:00,
2013-03-02 17:57:00,74.6,28.3,30.03,SSE,157,0.0,0.0,18,0.00,,---,0.00,VWS V14.00,2013-03-03 01:57:00,
2013-03-02 18:02:00,74.1,27.9,30.03,SSE,157,0.0,0.0,18,0.00,,---,0.00,VWS V14.00,2013-03-03 02:02:00,
2013-03-02 18:07:00,73.8,29.0,30.03,SSE,157,2.0,2.0,19,0.00,,---,0.00,VWS V14.00,2013-03-03 02:07:00,
2013-03-02 18:12:00,73.5,28.8,30.03,SSE,157,0.0,0.0,19,0.00,,---,0.00,VWS V14.00,2013-03-03 02:12:00,
2013-03-02 18:17:00,73.3,27.3,30.03,SSE,157,2.0,2.0,18,0.00,,---,0.00,VWS V14.00,2013-03-03 02:17:00,
2013-03-02 18:22:00,73.2,25.8,30.03,SSE,157,2.0,2.0,17,0.00,,---,0.00,VWS V14.00,2013-03-03 02:22:00,
2013-03-02 18:27:00,73.1,24.3,30.03,SSE,157,4.0,5.0,16,0.00,,---,0.00,VWS V14.00,2013-03-03 02:27:00,
2013-03-02 18:32:00,73.2,24.4,30.03,SSE,157,3.0,5.0,16,0.00,,---,0.00,VWS V14.00,2013-03-03 02:32:00,
2013-03-02 18:37:00,73.2,24.4,30.03,SSE,157,3.0,4.0,16,0.00,,---,0.00,VWS V14.00,2013-03-03 02:37:00,
2013-03-02 18:42:00,73.1,24.3,30.03,SSE,157,4.0,4.0,16,0.00,,---,0.00,VWS V14.00,2013-03-03 02:42:00,
2013-03-02 18:47:00,73.0,24.2,30.04,SSE,157,4.0,4.0,16,0.00,,---,0.00,VWS V14.00,2013-03-03 02:47:00,
2013-03-02 18:52:00,73.0,24.2,30.04,SSE,157,4.0,4.0,16,0.00,,---,0.00,VWS V14.00,2013-03-03 02:52:00,
2013-03-02 18:57:00,72.9,24.1,30.03,SSE,157,4.0,4.0,16,0.00,,---,0.00,VWS V14.00,2013-03-03 02:57:00,
2013-03-02 19:02:00,72.7,24.0,30.03,SSE,157,4.0,4.0,16,0.00,,---,0.00,VWS V14.00,2013-03-03 03:02:00,
2013-03-02 19:11:00,72.5,23.8,30.03,SSE,157,2.0,5.0,16,0.00,,---,0.00,VWS V14.00,2013-03-03 03:11:00,
2013-03-02 19:17:00,72.3,23.6,30.03,SSE,157,4.0,4.0,16,0.00,,---,0.00,VWS V14.00,2013-03-03 03:17:00,
2013-03-02 19:22:00,72.2,23.5,30.03,SSE,157,2.0,3.0,16,0.00,,---,0.00,VWS V14.00,2013-03-03 03:22:00,
2013-03-02 19:27:00,72.1,23.5,30.03,SSE,157,0.0,2.0,16,0.00,,---,0.00,VWS V14.00,2013-03-03 03:27:00,
2013-03-02 19:33:00,72.2,23.5,30.04,SSE,157,0.0,0.0,16,0.00,,---,0.00,VWS V14.00,2013-03-03 03:33:00,
2013-03-02 19:38:00,71.7,24.6,30.03,SSE,157,2.0,4.0,17,0.00,,---,0.00,VWS V14.00,2013-03-03 03:38:00,
2013-03-02 19:43:00,70.6,23.7,30.04,SSE,157,2.0,4.0,17,0.00,,---,0.00,VWS V14.00,2013-03-03 03:43:00,
2013-03-02 19:51:00,69.2,23.9,30.04,SSE,157,3.0,4.0,18,0.00,,---,0.00,VWS V14.00,2013-03-03 03:51:00,
2013-03-02 19:58:00,68.3,23.2,30.04,SSE,157,3.0,5.0,18,0.00,,---,0.00,VWS V14.00,2013-03-03 03:58:00,
2013-03-02 20:03:00,67.9,24.1,30.04,SSE,157,5.0,5.0,19,0.00,,---,0.00,VWS V14.00,2013-03-03 04:03:00,
2013-03-02 20:08:00,68.3,23.2,30.04,SSE,157,1.0,5.0,18,0.00,,---,0.00,VWS V14.00,2013-03-03 04:08:00,
2013-03-02 20:13:00,68.8,23.6,30.04,SSE,157,4.0,4.0,18,0.00,,---,0.00,VWS V14.00,2013-03-03 04:13:00,
2013-03-02 20:18:00,69.1,23.9,30.04,SSE,157,2.0,5.0,18,0.00,,---,0.00,VWS V14.00,2013-03-03 04:18:00,
2013-03-02 20:23:00,69.5,24.2,30.04,SSE,157,3.0,5.0,18,0.00,,---,0.00,VWS V14.00,2013-03-03 04:23:00,
2013-03-02 20:28:00,69.7,24.3,30.04,SSE,157,2.0,4.0,18,0.00,,---,0.00,VWS V14.00,2013-03-03 04:28:00,
2013-03-02 20:33:00,69.4,24.1,30.04,SSE,157,4.0,5.0,18,0.00,,---,0.00,VWS V14.00,2013-03-03 04:33:00,
2013-03-02 20:38:00,68.7,24.8,30.04,SSE,157,3.0,4.0,19,0.00,,---,0.00,VWS V14.00,2013-03-03 04:38:00,
2013-03-02 20:43:00,68.2,24.4,30.05,SSE,157,4.0,6.0,19,0.00,,---,0.00,VWS V14.00,2013-03-03 04:43:00,
2013-03-02 20:48:00,67.8,24.1,30.05,SSE,157,4.0,6.0,19,0.00,,---,0.00,VWS V14.00,2013-03-03 04:48:00,
2013-03-02 20:53:00,68.1,24.3,30.05,SSE,157,4.0,5.0,19,0.00,,---,0.00,VWS V14.00,2013-03-03 04:53:00,
2013-03-02 20:58:00,68.6,24.7,30.05,SSE,157,3.0,8.0,19,0.00,,---,0.00,VWS V14.00,2013-03-03 04:58:00,
2013-03-02 21:01:00,68.6,24.7,30.05,SSE,157,4.0,8.0,19,0.00,,---,0.00,VWS V14.00,2013-03-03 05:01:00,
2013-03-02 21:03:00,68.7,24.8,30.05,SSE,157,6.0,9.0,19,0.00,,---,0.00,VWS V14.00,2013-03-03 05:03:00,
2013-03-02 21:06:00,68.6,24.7,30.05,SSE,157,5.0,9.0,19,0.00,,---,0.00,VWS V14.00,2013-03-03 05:06:00,
2013-03-02 21:11:00,68.4,24.6,30.05,SSE,157,7.0,8.0,19,0.00,,---,0.00,VWS V14.00,2013-03-03 05:11:00,
2013-03-02 21:13:00,68.3,24.5,30.05,SSE,157,7.0,9.0,19,0.00,,---,0.00,VWS V14.00,2013-03-03 05:13:00,
2013-03-02 21:18:00,68.4,24.6,30.05,ESE,123,9.0,12.0,19,0.00,,---,0.00,VWS V14.00,2013-03-03 05:18:00,
2013-03-02 21:23:00,68.7,24.8,30.05,ESE,121,7.0,11.0,19,0.00,,---,0.00,VWS V14.00,2013-03-03 05:23:00,
2013-03-02 21:28:00,68.5,24.6,30.05,East,86,11.0,19.0,19,0.00,,---,0.00,VWS V14.00,2013-03-03 05:28:00,
2013-03-02 21:33:00,68.7,24.8,30.05,East,84,6.0,9.0,19,0.00,,---,0.00,VWS V14.00,2013-03-03 05:33:00,
2013-03-02 21:38:00,68.5,24.6,30.05,East,82,9.0,15.0,19,0.00,,---,0.00,VWS V14.00,2013-03-03 05:38:00,
2013-03-02 21:43:00,68.7,24.8,30.05,East,79,5.0,8.0,19,0.00,,---,0.00,VWS V14.00,2013-03-03 05:43:00,
2013-03-02 21:48:00,68.5,24.6,30.05,East,79,9.0,10.0,19,0.00,,---,0.00,VWS V14.00,2013-03-03 05:48:00,
2013-03-02 21:53:00,68.3,24.5,30.04,ENE,63,11.0,16.0,19,0.00,,---,0.00,VWS V14.00,2013-03-03 05:53:00,
2013-03-02 21:58:00,68.4,24.6,30.05,ENE,57,13.0,16.0,19,0.00,,---,0.00,VWS V14.00,2013-03-03 05:58:00,
2013-03-02 22:03:00,68.8,23.6,30.05,NE,55,11.0,13.0,18,0.00,,---,0.00,VWS V14.00,2013-03-03 06:03:00,
2013-03-02 22:08:00,68.7,23.5,30.05,NE,52,6.0,11.0,18,0.00,,---,0.00,VWS V14.00,2013-03-03 06:08:00,
2013-03-02 22:13:00,68.4,24.6,30.05,NE,52,6.0,11.0,19,0.00,,---,0.00,VWS V14.00,2013-03-03 06:13:00,
2013-03-02 22:18:00,68.3,24.5,30.05,NE,52,4.0,8.0,19,0.00,,---,0.00,VWS V14.00,2013-03-03 06:18:00,
2013-03-02 22:23:00,68.4,24.6,30.04,NE,52,6.0,6.0,19,0.00,,---,0.00,VWS V14.00,2013-03-03 06:23:00,
2013-03-02 22:28:00,68.6,24.7,30.04,NE,52,3.0,11.0,19,0.00,,---,0.00,VWS V14.00,2013-03-03 06:28:00,
2013-03-02 22:33:00,68.5,24.6,30.04,NE,52,2.0,8.0,19,0.00,,---,0.00,VWS V14.00,2013-03-03 06:33:00,
2013-03-02 22:38:00,68.8,23.6,30.04,NE,52,4.0,10.0,18,0.00,,---,0.00,VWS V14.00,2013-03-03 06:38:00,
2013-03-02 22:43:00,68.5,23.4,30.04,NE,52,4.0,15.0,18,0.00,,---,0.00,VWS V14.00,2013-03-03 06:43:00,
2013-03-02 22:48:00,69.2,23.9,30.03,NE,51,7.0,10.0,18,0.00,,---,0.00,VWS V14.00,2013-03-03 06:48:00,
2013-03-02 22:53:00,69.9,24.5,30.03,NE,44,8.0,11.0,18,0.00,,---,0.00,VWS V14.00,2013-03-03 06:53:00,
2013-03-02 22:58:00,70.7,23.8,30.03,NW,320,15.0,19.0,17,0.00,,---,0.00,VWS V14.00,2013-03-03 06:58:00,
2013-03-02 23:03:00,70.6,23.7,30.03,NW,324,6.0,14.0,17,0.00,,---,0.00,VWS V14.00,2013-03-03 07:03:00,
2013-03-02 23:08:00,70.4,24.9,30.02,NW,324,4.0,9.0,18,0.00,,---,0.00,VWS V14.00,2013-03-03 07:08:00,
2013-03-02 23:13:00,69.3,24.0,30.02,NW,324,8.0,10.0,18,0.00,,---,0.00,VWS V14.00,2013-03-03 07:13:00,
2013-03-02 23:18:00,68.9,23.7,30.02,NW,324,6.0,7.0,18,0.00,,---,0.00,VWS V14.00,2013-03-03 07:18:00,
2013-03-02 23:23:00,69.2,23.9,30.02,NW,324,4.0,7.0,18,0.00,,---,0.00,VWS V14.00,2013-03-03 07:23:00,
2013-03-02 23:28:00,69.4,24.1,30.02,NW,324,11.0,11.0,18,0.00,,---,0.00,VWS V14.00,2013-03-03 07:28:00,
2013-03-02 23:33:00,69.8,23.1,30.02,NW,324,2.0,4.0,17,0.00,,---,0.00,VWS V14.00,2013-03-03 07:33:00,
2013-03-02 23:38:00,69.5,24.2,30.01,NW,324,0.0,4.0,18,0.00,,---,0.00,VWS V14.00,2013-03-03 07:38:00,
2013-03-02 23:43:00,68.9,23.7,30.01,NW,324,2.0,5.0,18,0.00,,---,0.00,VWS V14.00,2013-03-03 07:43:00,
2013-03-02 23:48:00,68.7,23.5,30.01,NW,324,3.0,4.0,18,0.00,,---,0.00,VWS V14.00,2013-03-03 07:48:00,
2013-03-02 23:53:00,69.9,21.7,30.00,NW,309,11.0,24.0,16,0.00,,---,0.00,VWS V14.00,2013-03-03 07:53:00,
2013-03-02 23:58:00,71.6,21.5,30.00,NW,317,14.0,29.0,15,0.00,,---,0.00,VWS V14.00,2013-03-03 07:58:00,